Bellefontaine, OH

11:15 AM EST on December 05, 2016 (GMT -0500)
Bellefontaine

Weather History for KEDJ - December, 2013

Change the Weather History Date:

Thursday, December 5, 2013

  Actual Average (KDAY) Record (KDAY)
Temperature  
Mean Temperature 45 °F 34 °F  
Max Temperature 60 °F 42 °F 68 °F (2001)
Min Temperature 30 °F 27 °F 6 °F (1901)
Degree Days  
Heating Degree Days 20 31  
Month to date heating degree days 149  
Since 1 July heating degree days 1260  
Cooling Degree Days 0 0  
Month to date cooling degree days 0  
Year to date cooling degree days 891  
Moisture  
Dew Point 41 °F    
Average Humidity 89    
Maximum Humidity 100    
Minimum Humidity 75    
Precipitation  
Precipitation 0.01 in 0.10 in 1.94 in (2011)
Month to date precipitation 0.51  
Year to date precipitation 38.44  
Snow  
Snow 0.00 in 0.10 in 4.80 in (1984)
Month to date snowfall 0.4  
Since 1 July snowfall 1.4  
Snow Depth -    
Sea Level Pressure  
Sea Level Pressure 29.91 in    
Wind  
Wind Speed 11 mph (WSW)    
Max Wind Speed 17 mph    
Max Gust Speed 23 mph    
Visibility 8 miles    
Events      
T = Trace of Precipitation, MM = Missing Value Source: NWS Daily Summary

Daily Weather History Graph

Daily Weather History Graph

Search for Another Location

Airport or City:

Trip Planner

Search our weather history database for the weather conditions in past years. The results will help you decide how hot, cold, wet, or windy it might be!

Date:

Astronomy

Dec. 05, 2013 Rise Set
Actual Time 7:43 AM EST 5:08 PM EST
Civil Twilight 7:12 AM EST 5:39 PM EST
Nautical Twilight 6:38 AM EST 6:13 PM EST
Astronomical Twilight 6:05 AM EST 6:46 PM EST
Moon 10:02 AM EST 8:28 PM EST
Length of Visible Light 10h 26m
Length of Day
9h 25m
Waxing Crescent, 10% of the Moon is Illuminated
Dec 5
Waxing Crescent
Dec 9
First Quarter
Dec 17
Full
Dec 25
Last Quarter
Jan 1
New

Hourly Weather History & Observations

Time (EST) Temp. Windchill Dew Point Humidity Pressure Visibility Wind Dir Wind Speed Gust Speed Precip Events Conditions
12:05 AM 55.4 °F - 53.6 °F 94% 29.71 in 10.0 mi South 15.0 mph - 0.00 in   Partly Cloudy
12:25 AM 57.2 °F - 53.6 °F 88% 29.71 in 10.0 mi South 12.7 mph 20.7 mph 0.00 in   Mostly Cloudy
12:45 AM 57.2 °F - 53.6 °F 88% 29.72 in 10.0 mi South 11.5 mph - 0.00 in   Mostly Cloudy
1:05 AM 59.0 °F - 55.4 °F 88% 29.72 in 10.0 mi South 12.7 mph - 0.00 in   Overcast
1:25 AM 60.8 °F - 55.4 °F 82% 29.72 in 10.0 mi SSW 17.3 mph 23.0 mph 0.00 in   Mostly Cloudy
1:45 AM 60.8 °F - 55.4 °F 82% 29.72 in 10.0 mi SSW 15.0 mph 23.0 mph 0.00 in   Overcast
2:05 AM 60.8 °F - 55.4 °F 82% 29.72 in 10.0 mi SSW 16.1 mph 20.7 mph 0.00 in   Overcast
2:25 AM 60.8 °F - 55.4 °F 82% 29.73 in 10.0 mi SSW 13.8 mph 20.7 mph 0.00 in   Overcast
2:45 AM 60.8 °F - 55.4 °F 82% 29.73 in 10.0 mi SSW 16.1 mph - 0.00 in   Overcast
3:05 AM 60.8 °F - 55.4 °F 82% 29.74 in 10.0 mi SSW 13.8 mph - 0.00 in   Overcast
3:25 AM 60.8 °F - 55.4 °F 82% 29.75 in 10.0 mi SSW 12.7 mph - 0.00 in   Overcast
3:45 AM 60.8 °F - 55.4 °F 82% 29.75 in 10.0 mi SSW 12.7 mph - 0.00 in   Overcast
4:05 AM 60.8 °F - 55.4 °F 82% 29.75 in 10.0 mi SSW 12.7 mph - 0.00 in   Overcast
4:25 AM 60.8 °F - 55.4 °F 82% 29.75 in 10.0 mi SSW 12.7 mph - 0.00 in   Overcast
4:45 AM 59.0 °F - 55.4 °F 88% 29.75 in 10.0 mi SSW 12.7 mph - 0.00 in   Scattered Clouds
5:05 AM 59.0 °F - 55.4 °F 88% 29.75 in 10.0 mi SSW 11.5 mph - 0.00 in   Scattered Clouds
5:25 AM 59.0 °F - 55.4 °F 88% 29.76 in 10.0 mi SSW 11.5 mph - 0.00 in   Mostly Cloudy
5:45 AM 57.2 °F - 55.4 °F 94% 29.76 in 10.0 mi SSW 9.2 mph - 0.00 in   Overcast
6:05 AM 57.2 °F - 55.4 °F 94% 29.76 in 9.0 mi SW 11.5 mph - 0.00 in   Mostly Cloudy
6:25 AM 57.2 °F - 55.4 °F 94% 29.76 in 9.0 mi SW 8.1 mph - 0.00 in   Mostly Cloudy
6:45 AM 55.4 °F - 53.6 °F 94% 29.78 in 7.0 mi West 11.5 mph - 0.00 in   Overcast
7:05 AM 53.6 °F - 51.8 °F 94% 29.80 in 6.0 mi West 12.7 mph 18.4 mph 0.00 in   Overcast
7:25 AM 51.8 °F - 50.0 °F 94% 29.81 in 4.0 mi WSW 12.7 mph - 0.00 in   Overcast
7:45 AM 51.8 °F - 50.0 °F 94% 29.83 in 5.0 mi West 12.7 mph - 0.00 in   Overcast
8:05 AM 50.0 °F - 50.0 °F 100% 29.83 in 3.0 mi West 12.7 mph - 0.00 in   Overcast
8:25 AM 50.0 °F - 48.2 °F 94% 29.85 in 4.0 mi WSW 13.8 mph - 0.00 in   Overcast
8:45 AM 48.2 °F - 48.2 °F 100% 29.86 in 2.5 mi West 11.5 mph - 0.00 in   Overcast
9:05 AM 46.4 °F 42.4 °F 46.4 °F 100% 29.87 in 1.0 mi West 8.1 mph - 0.00 in   Overcast
9:25 AM 46.4 °F 42.9 °F 46.4 °F 100% 29.87 in 1.5 mi West 6.9 mph - 0.00 in   Overcast
9:45 AM 44.6 °F 38.8 °F 44.6 °F 100% 29.88 in 5.0 mi West 11.5 mph 19.6 mph 0.00 in   Overcast
10:05 AM 44.6 °F 39.7 °F 42.8 °F 93% 29.88 in 9.0 mi West 9.2 mph - 0.00 in   Scattered Clouds
10:25 AM 44.6 °F 39.7 °F 41.0 °F 87% 29.89 in 9.0 mi West 9.2 mph - 0.00 in   Mostly Cloudy
10:45 AM 42.8 °F 36.6 °F 39.2 °F 87% 29.92 in 10.0 mi West 11.5 mph - 0.00 in   Mostly Cloudy
11:05 AM 42.8 °F 35.8 °F 37.4 °F 81% 29.93 in 10.0 mi West 13.8 mph 18.4 mph 0.00 in   Overcast
11:25 AM 41.0 °F 33.5 °F 37.4 °F 87% 29.93 in 10.0 mi West 13.8 mph - 0.00 in   Overcast
11:45 AM 39.2 °F 32.0 °F 35.6 °F 87% 29.92 in 10.0 mi West 11.5 mph - 0.00 in   Overcast
12:05 PM 39.2 °F 30.8 °F 35.6 °F 87% 29.92 in 10.0 mi WNW 15.0 mph - 0.00 in   Overcast
12:25 PM 39.2 °F 31.2 °F 35.6 °F 87% 29.93 in 10.0 mi West 13.8 mph 18.4 mph 0.00 in   Mostly Cloudy
12:45 PM 39.2 °F 32.0 °F 33.8 °F 81% 29.92 in 10.0 mi West 11.5 mph 18.4 mph 0.00 in   Mostly Cloudy
1:05 PM 39.2 °F 31.2 °F 32.0 °F 75% 29.94 in 10.0 mi West 13.8 mph - 0.00 in   Mostly Cloudy
1:25 PM 37.4 °F 29.8 °F 32.0 °F 81% 29.94 in 10.0 mi WNW 11.5 mph 18.4 mph 0.00 in   Mostly Cloudy
1:45 PM 37.4 °F 29.3 °F 32.0 °F 81% 29.94 in 10.0 mi West 12.7 mph - 0.00 in   Mostly Cloudy
2:05 PM 37.4 °F 31.4 °F 32.0 °F 81% 29.94 in 10.0 mi West 8.1 mph - 0.00 in   Mostly Cloudy
2:25 PM 37.4 °F 30.8 °F 32.0 °F 81% 29.94 in 10.0 mi West 9.2 mph - 0.00 in   Scattered Clouds
2:45 PM 37.4 °F 30.8 °F 32.0 °F 81% 29.94 in 10.0 mi WNW 9.2 mph - 0.00 in   Scattered Clouds
3:05 PM 37.4 °F 30.8 °F 32.0 °F 81% 29.95 in 10.0 mi WNW 9.2 mph - 0.00 in   Partly Cloudy
3:25 PM 37.4 °F 30.3 °F 32.0 °F 81% 29.96 in 10.0 mi West 10.4 mph - 0.00 in   Scattered Clouds
3:45 PM 35.6 °F 28.6 °F 32.0 °F 87% 29.97 in 10.0 mi WNW 9.2 mph - 0.00 in   Mostly Cloudy
4:05 PM 35.6 °F 28.6 °F 30.2 °F 81% 29.99 in 10.0 mi WNW 9.2 mph - 0.00 in   Mostly Cloudy
4:25 PM 35.6 °F 28.0 °F 30.2 °F 81% 30.00 in 9.0 mi West 10.4 mph - 0.00 in   Mostly Cloudy
4:45 PM 33.8 °F 26.4 °F 30.2 °F 87% 30.00 in 10.0 mi WNW 9.2 mph - 0.00 in   Partly Cloudy
5:05 PM 33.8 °F 25.8 °F 32.0 °F 93% 30.04 in 10.0 mi West 10.4 mph - 0.00 in   Scattered Clouds
5:25 PM 33.8 °F 27.7 °F 32.0 °F 93% 30.05 in 5.0 mi West 6.9 mph - 0.00 in   Overcast
5:45 PM 33.8 °F 28.6 °F 32.0 °F 93% 30.04 in 6.0 mi West 5.8 mph - 0.01 in   Overcast
6:05 PM 32.0 °F 25.6 °F 32.0 °F 100% 30.06 in 7.0 mi West 6.9 mph - 0.00 in   Mostly Cloudy
6:25 PM 32.0 °F 26.4 °F 32.0 °F 100% 30.04 in 7.0 mi WNW 5.8 mph - 0.00 in   Mostly Cloudy
6:45 PM 32.0 °F - 32.0 °F 100% 30.04 in 7.0 mi Calm Calm - 0.00 in   Scattered Clouds
7:05 PM 32.0 °F - 30.2 °F 93% 30.03 in 6.0 mi Calm Calm - 0.00 in   Mostly Cloudy
7:25 PM 32.0 °F - 30.2 °F 93% 30.01 in 6.0 mi Calm Calm - 0.00 in   Mostly Cloudy
7:45 PM 32.0 °F - 30.2 °F 93% 30.03 in 9.0 mi Calm Calm - 0.00 in   Mostly Cloudy
8:05 PM 32.0 °F - 30.2 °F 93% 30.07 in 8.0 mi Calm Calm - 0.00 in   Overcast
8:25 PM 32.0 °F - 30.2 °F 93% 30.05 in 7.0 mi Calm Calm - 0.00 in   Overcast
8:45 PM 32.0 °F - 30.2 °F 93% 30.07 in 10.0 mi Calm Calm - 0.00 in   Mostly Cloudy
9:05 PM 32.0 °F - 30.2 °F 93% 30.08 in 9.0 mi Calm Calm - 0.00 in   Partly Cloudy
9:25 PM 32.0 °F - 30.2 °F 93% 30.11 in 10.0 mi Calm Calm - 0.00 in   Scattered Clouds
9:45 PM 32.0 °F - 28.4 °F 87% 30.10 in 10.0 mi Calm Calm - 0.00 in   Mostly Cloudy
10:05 PM 32.0 °F - 28.4 °F 87% 30.09 in 10.0 mi Calm Calm - 0.00 in   Partly Cloudy
10:25 PM 30.2 °F - 28.4 °F 93% 30.09 in 10.0 mi Calm Calm - 0.00 in   Scattered Clouds
10:45 PM 30.2 °F - 28.4 °F 93% 30.10 in 10.0 mi Calm Calm - 0.00 in   Scattered Clouds
11:05 PM 30.2 °F - 28.4 °F 93% 30.12 in 2.5 mi Calm Calm - 0.00 in   Mostly Cloudy
11:25 PM 30.2 °F - 28.4 °F 93% 30.09 in 1.8 mi Calm Calm - 0.00 in   Overcast
11:45 PM 30.2 °F - 30.2 °F 100% 30.09 in 2.5 mi Calm Calm - 0.00 in   Scattered Clouds